[[{"header":{"parameterUnit":"m.s-1","parameterCategory":1,"la1":30.2992,"la2":30.254,"lo1":-89.0895,"lo2":-89.0443,"dy":0.0025,"dx":0.0025,"nx":19,"ny":19,"refTime":"2026-04-28T09:00:00:Z","depth":0,"parameterNumber":2,"parameterNumberName":"U-component_of_WINDS"},"data":[0,0,0,4.6426,4.643,4.6613,4.6614,4.6865,4.6867,0,0,0,0,0,0,0,0,0,0,0,4.6382,4.6384,4.6425,4.643,4.6613,4.6614,4.6865,4.6867,0,0,0,0,0,0,0,0,0,0,0,4.6381,4.6384,4.6387,4.6431,4.6613,4.6614,4.6864,4.672,0,0,0,0,0,0,0,0,0,0,4.6539,4.651,4.6383,4.6387,4.6432,4.6613,4.6614,4.6713,4.6729,4.679,0,4.6847,0,4.6861,4.6885,4.6886,0,0,0,4.6422,4.6496,4.6536,4.6387,4.6434,4.6613,4.6528,4.6721,4.674,4.6811,4.685,4.6859,4.6865,4.6887,4.6888,4.7263,4.7265,0,0,4.6412,4.6421,4.6523,4.6548,4.6521,4.6523,4.6534,4.6732,4.6775,4.6851,4.6864,4.6869,4.6889,4.6891,4.7261,4.7264,0,0,0,4.6389,4.6415,4.6449,4.6538,4.657,4.6528,4.6541,4.6766,4.6777,4.6867,4.6872,4.689,4.6894,4.7259,4.7262,4.7374,0,0,0,4.6382,4.6401,4.6445,4.6452,4.6567,4.6671,4.6572,4.6763,4.6785,4.6871,4.689,4.6896,4.7257,4.7261,4.7366,4.7425,0,0,0,4.6367,4.6399,4.6429,4.6452,4.6531,4.6667,4.6689,4.6768,4.6789,4.6886,4.6897,4.7255,4.726,4.7359,4.7413,4.7524,0,0,0,4.6353,4.6528,4.6431,4.6628,4.653,4.6735,4.6687,4.684,4.6938,4.6892,4.7257,4.7262,4.7356,4.7406,4.7517,4.7618,4.7662,0,0,4.6579,4.6555,4.667,4.6589,4.6814,4.6707,4.6948,4.7029,4.7031,4.7186,4.7195,4.7369,4.7413,4.7523,4.7906,4.7941,0,0,0,4.6745,4.6827,4.6885,4.6977,4.7042,4.7102,4.7145,4.7175,4.7305,4.7112,4.7439,4.7465,4.753,4.7578,4.7607,4.7661,4.7285,4.7284,4.7284,4.7076,4.7067,4.7256,4.7269,4.7359,4.74,4.7472,4.7518,4.7485,4.7563,4.7608,4.7842,4.7898,4.792,4.7976,4.7662,4.7663,4.7663,4.7664,4.7404,4.7518,4.7467,4.7632,4.7621,4.7759,4.7805,4.7776,4.7903,4.7807,4.7864,4.7759,4.7959,4.8007,4.7672,4.7671,4.7669,4.7669,4.7668,4.7618,4.7671,4.7704,4.7834,4.7935,4.7942,4.8065,4.8052,4.804,4.8096,4.8141,4.8139,4.8133,4.8119,4.8119,4.812,4.8121,4.8121,4.8122,4.7828,4.786,4.7965,4.8047,4.8103,4.8175,4.8217,4.8271,4.8328,4.8309,4.8309,4.8266,4.7981,4.7908,4.8134,4.8132,4.8131,4.8129,4.8129,4.816,4.8082,4.8244,4.83,4.8393,4.8493,4.8474,4.8586,4.8629,4.869,4.8635,4.8427,4.8402,4.8379,4.8318,4.8638,4.8638,4.8638,4.8638,4.8339,4.8325,4.8486,4.8576,4.8662,4.866,4.8842,4.8875,4.8898,4.8924,4.8876,4.8795,4.8772,4.8761,4.8729,4.8672,4.9075,4.9075,4.9075,4.8542,4.8535,4.8692,4.8712,4.8784,4.8845,4.9015,4.9119,4.9129,4.9093,4.8943,4.8924,4.8794,4.8752,4.8712,4.8663,4.8559,0,0]},{"header":{"parameterUnit":"m.s-1","parameterCategory":1,"la1":30.2992,"la2":30.254,"lo1":-89.0895,"lo2":-89.0443,"dy":0.0025,"dx":0.0025,"nx":19,"ny":19,"refTime":"2026-04-28T09:00:00:Z","depth":0,"parameterNumber":3,"parameterNumberName":"V-component_of_WINDS"},"data":[0,0,0,3.4144,3.4147,3.4259,3.426,3.4398,3.4399,0,0,0,0,0,0,0,0,0,0,0,3.4111,3.4112,3.4144,3.4147,3.4259,3.426,3.4398,3.4399,0,0,0,0,0,0,0,0,0,0,0,3.411,3.4112,3.4113,3.4147,3.4259,3.426,3.4398,3.4314,0,0,0,0,0,0,0,0,0,0,3.4206,3.4175,3.4111,3.4113,3.4148,3.4259,3.426,3.431,3.4319,3.4346,0,3.4372,0,3.4388,3.4409,3.4409,0,0,0,3.4147,3.4168,3.4198,3.4113,3.4149,3.4259,3.4209,3.4315,3.4326,3.4358,3.4374,3.4379,3.439,3.441,3.441,3.4568,3.4568,0,0,3.4141,3.4131,3.4191,3.4205,3.419,3.4205,3.4212,3.4322,3.4337,3.4374,3.4382,3.4393,3.441,3.4412,3.4567,3.4568,0,0,0,3.4123,3.4126,3.4154,3.4199,3.422,3.4208,3.4216,3.4332,3.4343,3.4384,3.4394,3.4411,3.4413,3.4566,3.4567,3.4594,0,0,0,3.4119,3.4116,3.4151,3.4146,3.4218,3.4278,3.4225,3.4335,3.4348,3.4393,3.4411,3.4414,3.4566,3.4567,3.4591,3.4608,0,0,0,3.4104,3.4114,3.413,3.4146,3.4194,3.4277,3.4293,3.4338,3.4354,3.4409,3.4415,3.4565,3.4567,3.4589,3.4604,3.4644,0,0,0,3.4084,3.4153,3.4131,3.4212,3.4193,3.4293,3.4292,3.4368,3.4418,3.4412,3.4566,3.4567,3.4589,3.4602,3.4642,3.4676,3.469,0,0,3.4165,3.4163,3.4211,3.4194,3.4296,3.4277,3.4381,3.4437,3.4451,3.4527,3.4531,3.4592,3.4604,3.4644,3.4772,3.4782,0,0,0,3.4233,3.4267,3.4297,3.4345,3.4389,3.4428,3.4469,3.4488,3.4554,3.4489,3.4619,3.4626,3.465,3.4666,3.4675,3.4695,3.4575,3.4575,3.4575,3.4334,3.4348,3.4428,3.4455,3.4501,3.4542,3.4579,3.4613,3.4614,3.4644,3.4667,3.4743,3.4762,3.4768,3.4789,3.4687,3.4687,3.4687,3.4687,3.4453,3.4503,3.4502,3.4579,3.4592,3.4656,3.4696,3.4694,3.4754,3.4728,3.4749,3.4718,3.478,3.4798,3.4689,3.4689,3.4689,3.4688,3.4688,3.452,3.4546,3.457,3.4638,3.4689,3.4714,3.4771,3.4781,3.4791,3.4813,3.4836,3.4835,3.4834,3.4823,3.4823,3.4824,3.4824,3.4824,3.4824,3.4579,3.4604,3.4652,3.4703,3.4734,3.4776,3.4815,3.4844,3.4879,3.4882,3.4882,3.4878,3.4784,3.4759,3.4828,3.4828,3.4827,3.4827,3.4827,3.4692,3.4668,3.4741,3.4772,3.4831,3.4879,3.4892,3.4951,3.4977,3.5003,3.4995,3.4924,3.4921,3.4914,3.4893,3.4993,3.4993,3.4993,3.4993,3.4747,3.4747,3.4823,3.487,3.4918,3.4936,3.5015,3.5045,3.5072,3.5088,3.5075,3.5048,3.5041,3.5043,3.5033,3.5013,3.5141,3.5141,3.5142,3.4816,3.4821,3.4887,3.4914,3.4961,3.4999,3.5073,3.5125,3.515,3.5148,3.51,3.5093,3.5051,3.5037,3.5033,3.5017,3.4982,0,0]}]]